This demonstration page uses our WeatherBlox Daily Observations layout. Learn more.

Left ArrowRight Arrow

47.50024, -111.30081

Hourly Observations for March 8, 2015

Temp ( °F °C ) Dew Point ( °F °C ) Humidity (%) Winds ( mph kmh ) Pressure ( in mb ) Visibility ( mi km ) Precip ( " mm )
12:53 am 00:53 Mostly Clear 35 1.7 28 -2.2 76 76 SSW 13 20 30.12 1020 10 16 0.00 0.00
1:53 am 01:53 Clear 30 -1.1 25 -3.9 82 82 WSW 9 15 30.14 1021 10 16 0.00 0.00
3:53 am 03:53 Clear 30 -1.1 25 -3.9 82 82 SSW 10 17 30.14 1021 10 16 0.00 0.00
4:53 am 04:53 Clear 27 -2.8 23 -5 85 85 SSW 10 17 30.14 1021 10 16 0.00 0.00
5:53 am 05:53 Clear 28 -2.2 24 -4.4 85 85 SSW 10 17 30.15 1021 10 16 0.00 0.00
6:53 am 06:53 Clear 28 -2.2 23 -5 81 81 SW 10 17 30.17 1022 10 16 0.00 0.00
7:53 am 07:53 Sunny 27 -2.8 22 -5.6 81 81 SW 7 11 30.18 1022 10 16 0.00 0.00
8:53 am 08:53 Sunny 34 1.1 27 -2.8 76 76 SSW 7 11 30.17 1022 10 16 0.00 0.00
9:53 am 09:53 Sunny 42 5.6 28 -2.2 58 58 SW 7 11 30.16 1021 10 16 0.00 0.00
10:53 am 10:53 Sunny 46 7.8 27 -2.8 47 47 SSW 7 11 30.13 1020 10 16 0.00 0.00
11:53 am 11:53 Sunny 50 10 26 -3.3 39 39 WSW 8 13 30.11 1020 10 16 0.00 0.00
12:53 pm 12:53 Sunny 52 11.1 22 -5.6 31 31 WSW 14 22 30.08 1019 10 16 0.00 0.00
1:53 pm 13:53 Sunny 55 12.8 22 -5.6 28 28 SW 14 22 30.04 1017 10 16 0.00 0.00
2:53 pm 14:53 Sunny 56 13.3 22 -5.6 27 27 SW 14 22 30.01 1016 10 16 0.00 0.00
3:53 pm 15:53 Sunny 57 13.9 21 -6.1 25 25 SW 17 28 29.98 1015 10 16 0.00 0.00
4:53 pm 16:53 Sunny 56 13.3 22 -5.6 27 27 SW 20 31 29.98 1015 10 16 0.00 0.00
5:53 pm 17:53 Sunny 55 12.8 19 -7.2 24 24 WSW 17 28 29.97 1015 10 16 0.00 0.00
6:53 pm 18:53 Sunny 51 10.6 19 -7.2 28 28 W 20 31 29.99 1016 10 16 0.00 0.00
7:53 pm 19:53 Clear 39 3.9 20 -6.7 46 46 WSW 12 19 30.04 1017 10 16 0.00 0.00
8:53 pm 20:53 Clear 35 1.7 21 -6.1 57 57 WSW 10 17 30.04 1017 10 16 0.00 0.00
9:53 pm 21:53 Clear 37 2.8 22 -5.6 54 54 SW 12 19 30.01 1016 10 16 0.00 0.00
10:53 pm 22:53 Clear 38 3.3 22 -5.6 52 52 SW 13 20 30.01 1016 10 16 0.00 0.00
11:53 pm 23:53 Clear 36 2.2 21 -6.1 55 55 SSW 12 19 30.00 1016 10 16 0.00 0.00

Powered by AerisWeather